Погода в Сарафановке

Россия / Томская область     57°42′48″N   83°27′21″E
темп.,
°C
ветер,
м/с
пор.,
м/с
влажн.,
%
обл.,
%
осадки,
мм/ч
давл.,
гПа
погр.,
м
20 января, ср
ср2001:00−30з239756 0.0 102350
04:00−32з22960 0.0 102619
07:00−33з12960 0.0 102819
10:00−34зюз22960 0.0 103019
13:00−29зюз12930 0.0 1032176
16:00−28ююв119542 0.0 103136
19:00−31ююв129621 0.0 103219
22:00−31юв229660 0.0 103019
21 января, чт
чт2101:00−30вюв249680 0.0 1029126
04:00−28вюв3694100 0.0 1026223
07:00−26в3694100 0.0 1024247
10:00−26вюв3794100 0.0 1021288
13:00−23юв3596100 0.3 1019310
16:00−22юв2496100 0.1 1016302
19:00−23ююв2498100 0.2 1015117
22:00−22ю2498100 0.0 101394
22 января, пт
пт2201:00−23ююз239898 0.0 101247
04:00−23ююз239993 0.0 101175
07:00−25юз239891 0.0 101053
10:00−26юз239877 0.0 101053
13:00−23зюз249554 0.0 1011198
16:00−23зюз139613 0.0 1011104
19:00−26зюз229734 0.0 101223
22:00−27з229819 0.0 101422
23 января, сб
сб2301:00−29зюз239810 0.0 101634
04:00−30зюз23978 0.0 101935
07:00−29зюз239751 0.0 102167
10:00−26юз2698100 0.1 1024259
13:00−24юз2494100 0.2 1025368
16:00−23зюз2494100 0.1 1026483
19:00−24зюз1298100 0.2 102873
22:00−25зсз1299100 0.1 102966
24 января, вс
вс2401:00−29ссз229999 0.1 102941
04:00−31сз129899 0.0 103137
07:00−34ссз2398100 0.1 1032109
10:00−38сз229895 0.0 103442
13:00−37сз239564 0.0 1035221
16:00−36сз239343 0.0 1036271
19:00−41сз229639 0.0 103821
22:00−43сз229644 0.0 104019